{"data":{"norad_id":64299,"epoch":"2026-05-25T00:40:20.584128Z","epoch_age_seconds":65772,"freshness":"FRESH","line1":"1 64299U 25123J   26145.02801602  .00015501  00000+0  13044-2 0  9995","line2":"2 64299  70.0051   1.9713 0002743 312.3159  47.7767 14.98319071 53050","mean_motion":14.98319071,"eccentricity":0.0002743,"inclination_deg":70.0051,"raan_deg":1.9713,"arg_perigee_deg":312.3159,"mean_anomaly_deg":47.7767,"bstar":0.0013044,"rev_number":5305,"period_min":96.107700146867,"perigee_km":570.18324100025,"apogee_km":573.99613536138,"semimajor_km":6950.2266881808,"source":"CELESTRAK","updated_at":"2026-05-25T13:38:20.366534Z"}}